Date String (YYYY-MM-DD hh:mm:ss) UTC,Instrument flags,Ambient pressure (hPa),Sample flow (lpm),Bypass flow (lpm),Sample temperature (°C),Ambient temperature (°C),ASC tube jacket temperature (°C),LED temperature (°C),Box temperature (°C),Sample RH (%),Span deviation,Mass concentration (μg/m³),Mass concentration (μg/m³),Mass concentration (μg/m³)
DateTimeUTC,F1_M11,P_M11,Q1_M11,Q2_M11,T1_M11,T2_M11,T3_M11,T4_M11,T5_M11,U1_M11,ZSPAN_M11,X0_M11,X2_M11,X1_M11
2023-05-10 12:00:00,,0829.2,5.00,0.00,29.5,27.9,00.0,37.9,31.1,25.0,0001.6,0011.56,0007.46,0006.65
2023-05-10 12:01:00,,0829.1,4.99,0.00,29.5,27.9,00.0,37.9,31.1,24.9,0001.5,0011.49,0007.44,0006.65
2023-05-10 12:02:00,,0829.2,5.00,0.00,29.5,27.9,00.0,37.9,31.1,24.9,0001.3,0011.33,0007.39,0006.60
2023-05-10 12:03:00,,0829.1,5.00,0.00,29.6,27.9,00.0,37.9,31.1,24.8,0001.0,0011.16,0007.34,0006.58
2023-05-10 12:04:00,,0829.2,4.99,0.00,29.5,27.9,00.0,37.9,31.2,24.9,0001.1,0011.26,0007.32,0006.55
2023-05-10 12:05:00,,0829.2,5.01,0.00,29.5,27.9,00.0,37.9,31.2,25.1,0001.3,0011.65,0007.29,0006.53
2023-05-10 12:06:00,,0829.2,5.01,0.00,29.6,27.9,00.0,37.9,31.1,25.2,0001.6,0011.76,0007.31,0006.52
2023-05-10 12:07:00,,0829.3,5.00,0.00,29.6,27.9,00.0,37.9,31.1,25.1,0001.4,0011.91,0007.37,0006.54
2023-05-10 12:08:00,,0829.2,4.99,0.00,29.6,28.0,00.0,37.9,31.2,25.1,0000.9,0011.87,0007.37,0006.55
2023-05-10 12:09:00,,0829.3,4.99,0.00,29.6,28.0,00.0,37.9,31.2,25.1,0000.8,0011.95,0007.37,0006.56
2023-05-10 12:10:00,,0829.2,5.00,0.00,29.6,28.0,00.0,37.9,31.2,25.1,0000.9,0012.16,0007.41,0006.58
2023-05-10 12:11:00,,0829.2,5.00,0.00,29.6,27.9,00.0,37.9,31.2,25.2,0001.0,0012.40,0007.42,0006.60
2023-05-10 12:12:00,,0829.2,5.01,0.00,29.6,27.9,00.0,37.9,31.2,25.2,0000.8,0012.63,0007.47,0006.62
2023-05-10 12:13:00,,0829.2,5.00,0.00,29.6,28.0,00.0,38.0,31.2,25.1,0000.5,0012.68,0007.52,0006.66
2023-05-10 12:14:00,,0829.3,5.00,0.00,29.6,28.0,00.0,38.0,31.2,25.1,0000.6,0012.68,0007.52,0006.69
2023-05-10 12:15:00,,0829.3,4.99,0.00,29.6,27.9,00.0,38.0,31.2,25.1,0000.6,0012.62,0007.56,0006.72
2023-05-10 12:16:00,,0829.4,4.99,0.00,29.6,27.9,00.0,38.0,31.2,25.0,0000.4,0012.47,0007.63,0006.78
2023-05-10 12:17:00,,0829.4,5.00,0.00,29.6,27.9,00.0,38.0,31.2,25.0,0000.0,0012.65,0007.67,0006.80
2023-05-10 12:18:00,,0829.3,5.02,0.00,29.6,27.9,00.0,38.0,31.2,24.9,0000.3,0012.79,0007.72,0006.81
2023-05-10 12:19:00,,0829.3,5.00,0.00,29.6,27.9,00.0,38.0,31.2,24.9,0000.6,0012.86,0007.76,0006.82
2023-05-10 12:20:00,,0829.3,4.98,0.00,29.6,27.9,00.0,38.0,31.2,25.0,0000.6,0012.85,0007.78,0006.82
2023-05-10 12:21:00,,0829.3,5.00,0.00,29.6,27.9,00.0,38.0,31.2,25.2,0000.6,0012.90,0007.81,0006.83
2023-05-10 12:22:00,,0829.3,5.00,0.00,29.6,27.9,00.0,38.0,31.2,25.3,0000.6,0012.84,0007.83,0006.86
2023-05-10 12:23:00,,0829.3,5.01,0.00,29.6,27.9,00.0,38.0,31.2,25.4,0001.0,0012.76,0007.83,0006.87
2023-05-10 12:24:00,,0829.4,4.99,0.00,29.6,27.9,00.0,38.0,31.2,25.4,0001.2,0012.85,0007.85,0006.89
2023-05-10 12:25:00,,0829.4,4.99,0.00,29.6,27.9,00.0,38.0,31.2,25.2,0001.3,0012.95,0007.90,0006.90
2023-05-10 12:26:00,,0829.4,5.00,0.00,29.6,27.8,00.0,38.0,31.2,25.2,0001.0,0012.82,0007.85,0006.88
2023-05-10 12:27:00,,0829.4,5.00,0.00,29.5,27.8,00.0,38.0,31.1,25.2,0001.0,0012.53,0007.75,0006.83
2023-05-10 12:28:00,,0829.4,5.00,0.00,29.5,27.7,00.0,38.0,31.1,25.1,0001.3,0012.15,0007.65,0006.75
2023-05-10 12:29:00,,0829.4,5.00,0.00,29.5,27.7,00.0,38.0,31.0,25.1,0001.2,0012.53,0007.61,0006.74
2023-05-10 12:30:00,,0829.4,5.00,0.00,29.4,27.6,00.0,37.9,31.0,25.1,0000.9,0012.93,0007.61,0006.74
2023-05-10 12:31:00,,0829.5,5.00,0.00,29.4,27.5,00.0,37.9,30.9,25.2,0000.8,0012.64,0007.45,0006.65
2023-05-10 12:32:00,,0829.5,5.00,0.00,29.4,27.4,00.0,37.9,30.9,25.3,0000.7,0011.97,0007.13,0006.41
2023-05-10 12:33:00,,0829.4,5.00,0.00,29.3,27.3,00.0,37.9,30.9,25.5,0000.4,0011.65,0006.94,0006.26
2023-05-10 12:34:00,,0829.5,5.00,0.00,29.3,27.3,00.0,37.9,30.9,25.6,0000.3,0012.30,0006.84,0006.18
2023-05-10 12:35:00,,0829.4,5.00,0.00,29.3,27.3,00.0,37.9,30.9,25.7,0000.0,0012.38,0006.77,0006.12
2023-05-10 12:36:00,,0829.4,5.02,0.00,29.3,27.2,00.0,37.8,30.8,25.8,0000.0,0012.26,0006.69,0006.06
2023-05-10 12:37:00,,0829.5,4.99,0.00,29.3,27.2,00.0,37.8,30.8,26.1,0000.4,0012.30,0006.69,0006.04
2023-05-10 12:38:00,,0829.5,4.99,0.00,29.2,27.2,00.0,37.8,30.8,26.2,0000.3,0012.46,0006.71,0006.02
2023-05-10 12:39:00,,0829.6,4.99,0.00,29.2,27.1,00.0,37.8,30.8,26.4,-000.2,0012.51,0006.75,0006.04
2023-05-10 12:40:00,,0829.5,5.01,0.00,29.2,27.1,00.0,37.8,30.7,26.6,-000.2,0012.07,0006.69,0006.01
2023-05-10 12:41:00,,0829.6,5.00,0.00,29.1,27.1,00.0,37.8,30.7,26.9,-000.1,0011.88,0006.61,0005.97
2023-05-10 12:42:00,,0829.6,5.01,0.00,29.1,27.1,00.0,37.7,30.7,27.2,0000.0,0012.09,0006.70,0006.01
2023-05-10 12:43:00,,0829.5,5.01,0.00,29.1,27.1,00.0,37.7,30.7,27.5,0000.1,0012.84,0006.94,0006.19
2023-05-10 12:44:00,,0829.5,5.00,0.00,29.1,27.1,00.0,37.7,30.7,27.7,0000.4,0013.12,0007.13,0006.33
2023-05-10 12:45:00,,0829.5,4.98,0.00,29.1,27.1,00.0,37.7,30.7,27.9,0000.4,0012.71,0007.21,0006.36
2023-05-10 12:46:00,,0829.6,5.00,0.00,29.1,27.1,00.0,37.7,30.7,28.1,0000.7,0012.16,0007.24,0006.37
2023-05-10 12:47:00,,0829.6,5.00,0.00,29.1,27.1,00.0,37.6,30.7,28.3,0000.8,0012.19,0007.21,0006.33
2023-05-10 12:48:00,,0829.6,5.01,0.00,29.0,27.0,00.0,37.6,30.6,28.4,0000.7,0012.08,0007.09,0006.26
2023-05-10 12:49:00,,0829.7,5.01,0.00,29.0,27.0,00.0,37.6,30.6,28.8,0000.5,0012.01,0007.05,0006.21
2023-05-10 12:50:00,,0829.7,4.99,0.00,29.0,27.0,00.0,37.6,30.6,29.1,0000.8,0012.04,0007.02,0006.15
2023-05-10 12:51:00,,0829.7,5.00,0.00,29.0,27.0,00.0,37.6,30.6,29.2,0000.8,0011.76,0006.86,0006.04
2023-05-10 12:52:00,,0829.6,4.99,0.00,29.0,27.0,00.0,37.6,30.6,29.5,0000.8,0011.27,0006.77,0005.93
2023-05-10 12:53:00,,0829.7,5.01,0.00,29.0,27.0,00.0,37.5,30.5,29.6,0000.9,0011.25,0006.71,0005.85
2023-05-10 12:54:00,,0829.6,5.02,0.00,28.9,27.0,00.0,37.5,30.5,29.7,0000.9,0010.70,0006.57,0005.72
2023-05-10 12:55:00,,0829.6,5.01,0.00,28.9,27.0,00.0,37.5,30.5,29.5,0000.8,0010.57,0006.47,0005.62
2023-05-10 12:56:00,,0829.6,5.00,0.00,28.9,27.0,00.0,37.5,30.5,29.3,0000.6,0010.57,0006.35,0005.53
2023-05-10 12:57:00,,0829.7,5.00,0.00,28.9,27.0,00.0,37.5,30.5,28.8,0000.4,0010.45,0006.17,0005.39
2023-05-10 12:58:00,,0829.7,5.00,0.00,28.9,27.0,00.0,37.5,30.6,28.8,0000.2,0010.37,0006.10,0005.32
2023-05-10 12:59:00,,0829.7,5.00,0.00,28.9,27.0,00.0,37.5,30.5,28.5,0000.1,0010.29,0006.06,0005.27
